Starlink 1734

operational
NORAD ID: 46325 Int'l Des: 2020-062 Owner: SPXS Country: US Constellation: starlink
LEOCIRCULAR

Starlink 1734について

説明を読み込み中...

リアルタイム位置

3D地球を読み込み中...

次回通過

高度履歴

Altitude vs Time

uPlot chart will show altitude changes over time

軌道要素

1 46325U 20062A 25304.33336806 .00262655 00000-0 24161-2 0 9998
2 46325 53.0234 138.8068 0012406 116.9117 281.3414 15.66243039 5908
Epoch: Oct 31, 2025 • Age: 5 hours

現在のステータス

高度 369.3 km
速度 7.69 km/s
衛星直下点 37.87°N, 56.29°W
打ち上げ日 Sep 3, 2020
運用期間 5.1 years
タイプ internet

技術仕様

分類 Payload
質量 260.00 kg
乾燥質量 248.00 kg
総質量 260.00 kg
長さ 0.20 m
直径 2.80 m
スパン 9.00 m
形状 Box + pan
製造者 SPXS
バスタイプ Starlink
フェーズステータス In Orbit
所有者/国 SPXS/US

大規模コンステレーション

Loading constellations...